This is the latest recevied weather packets stored in our database for station/object K6TTR. If no packets are shown the sender has not sent any weather packets the latest 10 day(s).
| Time | Temp. | Humidity | Pressure | Rain* | Wind** | Luminosity | Snow |
|---|---|---|---|---|---|---|---|
| 1777943917 | 10° C | 81% | 1011.5 hPa | 0 mm | - | 40 W/m² | - |
| 1777943624 | 10.56° C | 80% | 1011.3 hPa | 0 mm | - | 53 W/m² | - |
| 1777943330 | 10.56° C | 81% | 1010.9 hPa | 0 mm | - | 63 W/m² | - |
| 1777943016 | 10.56° C | 80% | 1011 hPa | 0 mm | - | 88 W/m² | - |
| 1777942723 | 11.11° C | 80% | 1011 hPa | 0 mm | - | 91 W/m² | - |
| 1777942428 | 11.11° C | 79% | 1010.8 hPa | 0 mm | - | 83 W/m² | - |
| 1777942116 | 11.11° C | 78% | 1010.6 hPa | 0 mm | - | 105 W/m² | - |
| 1777941823 | 11.67° C | 78% | 1010.6 hPa | 0 mm | - | 185 W/m² | - |
| 1777941528 | 11.67° C | 77% | 1010.5 hPa | 0 mm | - | 195 W/m² | - |
| 1777941214 | 11.67° C | 77% | 1010.4 hPa | 0 mm | - | 171 W/m² | - |
| 1777940918 | 12.22° C | 76% | 1010.3 hPa | 0 mm | - | 114 W/m² | - |
| 1777940624 | 12.22° C | 74% | 1010.4 hPa | 0 mm | - | 100 W/m² | - |
| 1777940313 | 12.78° C | 72% | 1010.2 hPa | 0 mm | - | 113 W/m² | - |
| 1777940018 | 13.33° C | 72% | 1010.1 hPa | 0 mm | - | 149 W/m² | - |
| 1777939723 | 13.33° C | 70% | 1010.2 hPa | 0 mm | - | 163 W/m² | - |
| 1777939431 | 13.89° C | 69% | 1010.1 hPa | 0 mm | - | 181 W/m² | - |
| 1777939114 | 13.89° C | 61% | 1010.1 hPa | 0 mm | - | 135 W/m² | - |
| 1777938821 | 14.44° C | 57% | 1010.3 hPa | 0 mm | - | 113 W/m² | - |
| 1777938526 | 14.44° C | 60% | 1010.5 hPa | 0 mm | - | 83 W/m² | - |
| 1777938211 | 14.44° C | 65% | 1011.1 hPa | 0 mm | - | 183 W/m² | - |
| 1777937914 | 14.44° C | 65% | 1011.4 hPa | 0 mm | - | 183 W/m² | - |
| 1777937619 | 14.44° C | 66% | 1011.7 hPa | 0 mm | - | 213 W/m² | - |
| 1777937325 | 13.89° C | 65% | 1011.6 hPa | 0 mm | - | 269 W/m² | - |
| 1777937028 | 13.89° C | 69% | 1011.5 hPa | 0 mm | - | 213 W/m² | - |
| 1777936714 | 13.89° C | 71% | 1011.7 hPa | 0 mm | - | 236 W/m² | - |
* Rain latest hour (hover to see other rain measurements)
** Current wind speed in m/s (hover to see current wind gust speed)